#timestamp,LO_Frequency,Hit,StdDev 
1547240415.8,286047004.4,N
1547240435.6,286047001.8,N
1547240455.5,286047002.3,N
1547240475.3,286047001.3,N
1547240495.1,286047001.3,N
1547240515.9,286047001.9,N
1547240535.7,286047001.3,N
1547240555.6,286047001.0,N
1547240575.4,286047000.9,N
1547240595.2,286046998.7,N
1547240615.1,286046999.6,N
1547240616.0,286046999.6,N
1547240635.8,286046999.6,N
1547240655.7,286046998.3,N
1547240675.5,286046999.3,N
1547240695.3,286046997.0,N
1547240715.2,286046999.0,N
1547240735.0,286046997.0,N
1547240735.9,286046997.0,N
1547240755.7,286047000.7,N
1547240775.6,286046998.2,N
1547240795.4,286046997.4,N
1547240815.3,286046997.4,N
1547240835.1,286046997.2,N
1547240855.8,286046997.0,N
1547240875.7,286046997.6,N
1547240895.5,286047001.1,N
1547240915.4,286046999.1,N
1547240935.2,286046996.5,N
1547240955.0,286046996.5,N
1547240955.9,286046996.5,N
1547240975.8,286046996.6,N
1547240995.6,286046999.3,N
1547241015.4,286046996.6,N
1547241035.3,286047000.8,N
1547241055.1,286047000.2,N
1547241075.9,286046999.7,N
1547241095.7,286047001.6,N
1547241115.5,286047000.3,N
1547241135.4,286046998.3,N
1547241155.2,286046999.4,N
1547241175.1,286046998.1,N
1547241176.0,286046998.1,N
1547241195.8,286047000.9,N
1547241215.6,286047001.1,N
1547241235.5,286047000.0,N
1547241255.3,286046998.6,N
1547241275.1,286046997.7,N
1547241295.9,286047001.1,N
1547241315.7,286047002.6,N
1547241335.6,286047000.1,N
1547241355.4,286047001.7,N
1547241375.2,286047004.3,N
1547241395.1,286047002.3,N
1547241396.0,286047002.3,N
1547241415.8,286047002.5,N
1547241435.7,286047002.7,N
1547241455.5,286047000.5,N
1547241475.3,286047002.2,N
1547241495.2,286047000.2,N
1547241515.0,286047000.4,N
1547241515.9,286047000.4,N
1547241535.7,286046998.7,N
1547241555.6,286047001.1,N
1547241575.4,286047003.9,N
1547241595.3,286047002.8,N
1547241615.1,286046998.2,N
1547241646.0,286046998.1,E
1547241655.0,286047001.1,N
1547241655.9,286047001.1,P
1547241675.8,286047000.2,P
1547241695.6,286047000.6,N
1547241715.5,286046998.4,Y
1547241735.3,286046997.2,P
1547241755.1,286046995.9,N
1547241775.9,286046997.3,N
1547241795.7,286046999.1,N
1547241815.5,286046999.2,N
1547241835.4,286046996.8,N
1547241855.2,286046996.7,N
1547241875.1,286046997.6,N
1547241876.0,286046997.6,N
1547241895.8,286046997.4,N
1547241915.6,286046996.8,N
1547241935.5,286046997.9,N
1547241955.3,286046999.5,N
1547241975.1,286046995.0,Y
1547241995.9,286046998.1,P
1547242015.7,286047002.1,P
1547242035.6,286047002.0,N
1547242055.4,286047002.1,N
1547242075.2,286047001.3,N
1547242095.1,286047001.8,N
1547242096.0,286047001.8,N
1547242115.8,286047001.4,N
1547242135.7,286047003.0,N
1547242155.5,286047005.6,Y
1547242175.3,286047001.4,P
1547242195.2,286046999.7,N
1547242215.0,286046999.9,N
1547242215.9,286046999.9,N
1547242235.7,286047003.3,Y
1547242255.6,286047003.3,P
1547242275.4,286047003.8,N
1547242295.3,286047005.6,P
1547242315.1,286047004.4,N
1547242316.0,286047004.4,N
1547242335.8,286047001.0,N
1547242355.7,286047000.4,N
1547242375.5,286047002.7,N
1547242395.3,286047002.0,N
1547242415.2,286047002.2,N
1547242435.0,286046999.9,N
1547242435.9,286046999.9,N
1547242455.8,286047000.4,N
1547242475.6,286047002.3,N
1547242495.4,286047000.4,N
1547242515.3,286046998.5,N
1547242535.1,286047000.6,N
1547242555.8,286047000.8,N
1547242575.7,286046998.6,N
1547242595.5,286047001.2,N
1547242615.4,286047001.2,N
1547242635.2,286047000.2,N
1547242655.0,286047000.2,N
1547242655.9,286047000.2,N
1547242675.8,286047001.0,N
1547242695.6,286046999.2,N
1547242715.4,286046997.0,N
1547242735.3,286046996.9,N
1547242755.1,286047000.9,N
1547242775.9,286047000.8,N
1547242795.7,286046998.7,N
1547242815.5,286046998.8,N
1547242835.4,286047000.7,N
1547242855.2,286046998.1,N
1547242875.0,286046998.1,N
1547242875.9,286046998.1,N
1547242895.8,286046998.9,N
1547242915.6,286047001.0,N
1547242935.5,286047003.0,N
1547242955.3,286047001.9,N
1547242975.1,286047000.9,N
1547242995.9,286047000.4,N
1547243015.7,286047001.2,N
1547243035.6,286046997.1,N
1547243055.4,286046997.1,N
1547243075.2,286047000.2,N
1547243095.1,286047000.7,N
1547243096.0,286047000.7,N
1547243115.8,286047002.6,N
1547243135.6,286047001.7,N
1547243155.5,286047000.9,N
1547243175.3,286046998.6,N
1547243195.2,286046998.1,N
1547243215.9,286046998.5,N
1547243235.7,286047000.1,N
1547243255.6,286047001.1,N
1547243275.4,286047002.7,N
1547243295.2,286047000.3,N
1547243315.1,286047000.0,N
1547243316.0,286047000.0,N
1547243335.8,286046999.4,N
1547243355.7,286046996.6,N
1547243375.5,286046997.9,N
1547243395.3,286046997.1,N
1547243415.2,286046999.2,N
1547243435.0,286046999.1,N
1547243435.9,286046999.1,N
1547243455.7,286046998.5,N
1547243475.6,286047000.0,N
1547243495.4,286046999.9,N
1547243515.3,286047000.2,N
1547243535.1,286047001.1,N
1547243536.0,286047001.1,N
1547243555.8,286046999.4,N
1547243575.7,286046999.6,N
1547243595.5,286047003.9,N
1547243615.3,286047006.0,Y
1547243635.2,286047001.5,P
1547243655.0,286047001.4,N
1547243655.9,286047001.4,N
1547243675.8,286047001.5,N
1547243695.6,286047001.0,N
1547243715.4,286046998.9,N
1547243735.3,286047000.1,N
1547243755.1,286047000.0,N
1547243775.8,286046999.1,N
1547243795.7,286046998.8,N
1547243815.5,286046998.5,N
1547243835.4,286046998.3,N
1547243855.2,286046998.5,N
1547243875.0,286046998.7,N
1547243875.9,286046998.7,N
1547243895.8,286046997.9,N
1547243915.6,286046999.4,N
1547243935.4,286047001.5,N
1547243955.3,286047001.0,N
1547243975.1,286047001.2,N
1547243995.9,286046999.4,N
